This is the latest recevied weather packets stored in our database for station/object W1HS. If no packets are shown the sender has not sent any weather packets the latest 10 day(s).
| Time | Temp. | Humidity | Pressure | Rain* | Wind** | Luminosity | Snow |
|---|---|---|---|---|---|---|---|
| 1777615338 | 4.44° C | 94% | 988.9 hPa | 0 mm | - | 0 W/m² | - |
| 1777614738 | 4.44° C | 94% | 988.8 hPa | 0 mm | - | 0 W/m² | - |
| 1777614138 | 4.44° C | 94% | 988.8 hPa | 0 mm | - | 0 W/m² | - |
| 1777613539 | 5° C | 95% | 988.7 hPa | 0 mm | - | 0 W/m² | - |
| 1777612938 | 5° C | 95% | 988.8 hPa | 0 mm | - | 0 W/m² | - |
| 1777612338 | 5° C | 94% | 988.7 hPa | 0 mm | - | 0 W/m² | - |
| 1777611738 | 5.56° C | 95% | 988.7 hPa | 0 mm | - | 0 W/m² | - |
| 1777611140 | 5.56° C | 95% | 988.7 hPa | 0 mm | - | 0 W/m² | - |
| 1777610538 | 5.56° C | 95% | 988.7 hPa | 0 mm | - | 0 W/m² | - |
| 1777609938 | 5.56° C | 95% | 988.8 hPa | 0 mm | - | 0 W/m² | - |
| 1777609338 | 6.11° C | 95% | 988.8 hPa | 0 mm | - | 0 W/m² | - |
| 1777608738 | 6.11° C | 95% | 988.8 hPa | 0.25 mm | - | 0 W/m² | - |
| 1777608138 | 6.11° C | 95% | 988.9 hPa | 0.25 mm | - | 0 W/m² | - |
| 1777607540 | 6.11° C | 95% | 988.8 hPa | 0.25 mm | - | 0 W/m² | - |
| 1777606938 | 6.67° C | 95% | 988.9 hPa | 0.25 mm | - | 0 W/m² | - |
| 1777606338 | 6.67° C | 95% | 988.8 hPa | 0.25 mm | - | 0 W/m² | - |
| 1777605738 | 6.67° C | 95% | 988.8 hPa | 0.25 mm | - | 0 W/m² | - |
| 1777605138 | 7.22° C | 95% | 988.6 hPa | 0.25 mm | - | 0 W/m² | - |
| 1777604539 | 7.22° C | 95% | 988.6 hPa | 0.51 mm | - | 0 W/m² | - |
| 1777603938 | 7.78° C | 95% | 988.6 hPa | 1.02 mm | - | 0 W/m² | - |
| 1777603338 | 7.78° C | 95% | 988.6 hPa | 1.52 mm | - | 0 W/m² | - |
| 1777602738 | 7.78° C | 95% | 988.7 hPa | 2.03 mm | - | 0 W/m² | - |
| 1777602138 | 7.78° C | 95% | 988.6 hPa | 2.29 mm | - | 0 W/m² | - |
| 1777601538 | 8.33° C | 95% | 988.6 hPa | 2.29 mm | - | 0 W/m² | - |
| 1777600938 | 8.33° C | 95% | 988.6 hPa | 2.03 mm | - | 0 W/m² | - |
* Rain latest hour (hover to see other rain measurements)
** Current wind speed in m/s (hover to see current wind gust speed)